This is the latest recevied weather packets stored in our database for station/object WX5KDM. If no packets are shown the sender has not sent any weather packets the latest 10 day(s).
| Time | Temp. | Humidity | Pressure | Rain* | Wind** | Luminosity | Snow |
|---|---|---|---|---|---|---|---|
| 1777661572 | 18.33° C | 59% | 1017 hPa | 0 mm | - | - | - |
| 1777661269 | 18.33° C | 55% | 1016.9 hPa | 0 mm | - | - | - |
| 1777660964 | 18.33° C | 58% | 1017.1 hPa | 0 mm | - | - | - |
| 1777660660 | 18.89° C | 55% | 1017.1 hPa | 0 mm | - | - | - |
| 1777660358 | 18.33° C | 59% | 1017.2 hPa | 0 mm | - | - | - |
| 1777660054 | 18.33° C | 58% | 1017.4 hPa | 0 mm | - | - | - |
| 1777659751 | 18.33° C | 54% | 1017.5 hPa | 0 mm | - | - | - |
| 1777659448 | 18.33° C | 58% | 1017.3 hPa | 0 mm | - | - | - |
| 1777659145 | 18.33° C | 55% | 1017.3 hPa | 0 mm | - | - | - |
| 1777658843 | 18.33° C | 55% | 1017.4 hPa | 0 mm | - | - | - |
| 1777658538 | 18.33° C | 55% | 1017.3 hPa | 0 mm | - | - | - |
| 1777658235 | 18.33° C | 57% | 1017.1 hPa | 0 mm | - | - | - |
| 1777657932 | 18.33° C | 58% | 1017 hPa | 0 mm | - | - | - |
| 1777657629 | 17.78° C | 58% | 1017.2 hPa | 0 mm | - | - | - |
| 1777657326 | 17.78° C | 60% | 1017 hPa | 0 mm | - | - | - |
| 1777657024 | 17.78° C | 57% | 1017.1 hPa | 0 mm | - | - | - |
| 1777656721 | 17.78° C | 58% | 1017 hPa | 0 mm | - | - | - |
| 1777656417 | 17.78° C | 59% | 1017 hPa | 0 mm | - | - | - |
| 1777656112 | 17.78° C | 62% | 1016.8 hPa | 0 mm | - | - | - |
| 1777655808 | 17.78° C | 60% | 1016.7 hPa | 0 mm | - | - | - |
| 1777655505 | 17.22° C | 63% | 1016.6 hPa | 0 mm | - | - | - |
| 1777655202 | 17.22° C | 62% | 1016.7 hPa | 0 mm | - | - | - |
| 1777654899 | 16.67° C | 61% | 1017.1 hPa | 0 mm | - | - | - |
| 1777654596 | 16.67° C | 59% | 1017.1 hPa | 0 mm | - | - | - |
| 1777654293 | 16.67° C | 61% | 1017.1 hPa | 0 mm | - | - | - |
* Rain latest hour (hover to see other rain measurements)
** Current wind speed in m/s (hover to see current wind gust speed)